Date String (YYYY-MM-DD hh:mm:ss) UTC,Instrument flags,Ambient pressure (hPa),Sample flow (lpm),Bypass flow (lpm),Sample temperature (°C),Ambient temperature (°C),ASC tube jacket temperature (°C),LED temperature (°C),Box temperature (°C),Sample RH (%),Span deviation,Mass concentration (μg/m³),Mass concentration (μg/m³),Mass concentration (μg/m³)
DateTimeUTC,F1_M11,P_M11,Q1_M11,Q2_M11,T1_M11,T2_M11,T3_M11,T4_M11,T5_M11,U1_M11,ZSPAN_M11,X0_M11,X2_M11,X1_M11
2021-11-14 04:00:00,,0829.0,5.00,0.00,28.1,27.3,00.0,37.1,29.8,10.7,0000.0,0002.89,0000.85,0000.63
2021-11-14 04:01:00,,0829.0,4.99,0.00,28.1,27.3,00.0,37.1,29.9,10.7,0000.0,0002.94,0000.87,0000.63
2021-11-14 04:02:00,,0829.1,4.99,0.00,28.1,27.3,00.0,37.1,29.9,10.7,0000.0,0002.93,0000.86,0000.63
2021-11-14 04:03:00,,0829.0,5.00,0.00,28.1,27.3,00.0,37.1,29.9,10.7,0000.0,0002.90,0000.85,0000.63
2021-11-14 04:04:00,,0829.0,5.01,0.00,28.1,27.3,00.0,37.1,29.9,10.7,0000.0,0001.49,0000.83,0000.63
2021-11-14 04:05:00,,0829.1,4.99,0.00,28.1,27.3,00.0,37.1,29.9,10.7,0000.0,0001.42,0000.83,0000.62
2021-11-14 04:06:00,,0829.1,5.00,0.00,28.1,27.4,00.0,37.1,29.9,10.6,0000.0,0001.34,0000.80,0000.61
2021-11-14 04:07:00,,0829.1,5.01,0.00,28.1,27.4,00.0,37.1,30.0,10.7,0000.0,0001.27,0000.78,0000.61
2021-11-14 04:08:00,,0829.0,4.99,0.00,28.1,27.4,00.0,37.1,29.9,10.7,0000.0,0001.20,0000.76,0000.61
2021-11-14 04:09:00,,0829.1,5.00,0.00,28.1,27.3,00.0,37.1,29.9,10.7,0000.0,0001.12,0000.75,0000.61
2021-11-14 04:10:00,,0829.1,4.99,0.00,28.1,27.3,00.0,37.1,29.9,10.7,0000.0,0001.18,0000.77,0000.61
2021-11-14 04:11:00,,0829.1,4.99,0.00,28.1,27.3,00.0,37.1,29.9,10.7,0000.0,0001.22,0000.79,0000.61
2021-11-14 04:12:00,,0829.1,5.00,0.00,28.1,27.3,00.0,37.1,29.9,10.7,0000.0,0001.16,0000.78,0000.60
2021-11-14 04:13:00,,0829.0,5.02,0.00,28.1,27.3,00.0,37.1,29.8,10.8,0000.0,0001.17,0000.77,0000.60
2021-11-14 04:14:00,,0829.0,4.98,0.00,28.1,27.3,00.0,37.1,29.9,10.9,0000.0,0001.21,0000.78,0000.58
2021-11-14 04:15:00,,0829.1,5.01,0.00,28.1,27.3,00.0,37.1,29.9,10.9,0000.0,0001.27,0000.80,0000.57
2021-11-14 04:16:00,,0829.1,4.98,0.00,28.1,27.2,00.0,37.1,29.9,10.8,0000.0,0001.25,0000.79,0000.57
2021-11-14 04:17:00,,0829.0,5.01,0.00,28.0,27.2,00.0,37.1,29.8,10.8,0000.0,0001.36,0000.81,0000.57
2021-11-14 04:18:00,,0829.1,5.00,0.00,28.0,27.2,00.0,37.1,29.8,10.9,0000.0,0001.47,0000.86,0000.57
2021-11-14 04:19:00,,0829.0,5.00,0.00,28.0,27.1,00.0,37.1,29.7,10.8,0000.0,0001.48,0000.86,0000.57
2021-11-14 04:20:00,,0829.1,5.00,0.00,28.0,27.1,00.0,37.1,29.7,10.7,0000.0,0001.37,0000.82,0000.55
2021-11-14 04:21:00,,0829.1,4.99,0.00,27.9,27.1,00.0,37.0,29.7,10.8,0000.0,0001.33,0000.81,0000.54
2021-11-14 04:22:00,,0829.1,5.01,0.00,27.9,27.1,00.0,37.0,29.6,10.9,0000.0,0001.33,0000.80,0000.54
2021-11-14 04:23:00,,0829.2,5.00,0.00,27.9,27.1,00.0,37.0,29.6,10.9,0000.0,0001.40,0000.84,0000.55
2021-11-14 04:24:00,,0829.2,5.00,0.00,27.9,27.1,00.0,37.0,29.6,10.8,0000.0,0001.43,0000.85,0000.54
2021-11-14 04:25:00,,0829.2,5.00,0.00,27.9,27.1,00.0,37.0,29.6,10.9,0000.0,0001.43,0000.85,0000.54
2021-11-14 04:26:00,,0829.2,5.01,0.00,27.9,27.0,00.0,37.0,29.6,10.9,0000.0,0001.37,0000.83,0000.54
2021-11-14 04:27:00,,0829.2,4.99,0.00,27.8,27.0,00.0,37.0,29.6,11.0,0000.0,0001.37,0000.82,0000.54
2021-11-14 04:28:00,,0829.2,4.98,0.00,27.8,27.0,00.0,37.0,29.6,11.1,0000.0,0001.29,0000.80,0000.53
2021-11-14 04:29:00,,0829.3,5.00,0.00,27.8,27.0,00.0,36.9,29.5,11.1,0000.0,0001.11,0000.74,0000.52
2021-11-14 04:30:00,,0829.3,5.00,0.00,27.8,27.0,00.0,36.9,29.5,11.2,0000.0,0001.07,0000.73,0000.51
2021-11-14 04:31:00,,0829.2,5.00,0.00,27.8,27.0,00.0,36.9,29.5,11.3,0000.0,0001.13,0000.75,0000.52
2021-11-14 04:32:00,,0829.3,5.00,0.00,27.8,27.0,00.0,36.9,29.5,11.4,0000.0,0001.18,0000.77,0000.53
2021-11-14 04:33:00,,0829.3,5.00,0.00,27.8,27.0,00.0,36.9,29.5,11.4,0000.0,0001.15,0000.76,0000.54
2021-11-14 04:34:00,,0829.2,5.01,0.00,27.8,27.0,00.0,36.9,29.5,11.3,0000.0,0001.11,0000.74,0000.53
2021-11-14 04:35:00,,0829.3,5.00,0.00,27.8,27.0,00.0,36.9,29.5,11.4,0000.0,0001.14,0000.74,0000.54
2021-11-14 04:36:00,,0829.3,4.99,0.00,27.8,26.9,00.0,36.9,29.5,11.4,0000.0,0001.24,0000.77,0000.54
2021-11-14 04:37:00,,0829.3,5.01,0.00,27.7,26.9,00.0,36.9,29.5,11.2,0000.0,0001.28,0000.79,0000.54
2021-11-14 04:38:00,,0829.4,5.00,0.00,27.7,26.9,00.0,36.9,29.5,11.1,0000.0,0001.27,0000.79,0000.55
2021-11-14 04:39:00,,0829.4,5.01,0.00,27.7,26.9,00.0,36.9,29.4,11.2,0000.0,0001.27,0000.79,0000.56
2021-11-14 04:40:00,,0829.5,5.00,0.00,27.7,26.9,00.0,36.8,29.4,11.3,0000.0,0001.36,0000.80,0000.56
2021-11-14 04:41:00,,0829.5,4.99,0.00,27.7,26.9,00.0,36.8,29.4,11.2,0000.0,0001.44,0000.81,0000.57
2021-11-14 04:42:00,,0829.6,5.00,0.00,27.7,26.9,00.0,36.8,29.4,11.0,0000.0,0001.39,0000.79,0000.58
2021-11-14 04:43:00,,0829.6,5.00,0.00,27.7,26.9,00.0,36.8,29.4,11.2,0000.0,0001.34,0000.76,0000.57
2021-11-14 04:44:00,,0829.7,4.99,0.00,27.7,26.9,00.0,36.8,29.4,11.2,0000.0,0001.37,0000.77,0000.57
2021-11-14 04:45:00,,0829.8,5.02,0.00,27.7,26.9,00.0,36.8,29.4,11.1,0000.0,0001.35,0000.77,0000.57
2021-11-14 04:46:00,,0830.1,4.99,0.00,27.7,26.8,00.0,36.8,29.4,11.1,0000.0,0001.57,0000.76,0000.57
2021-11-14 04:47:00,,0830.0,5.01,0.00,27.7,26.8,00.0,36.8,29.4,11.9,0000.0,0005.39,0000.99,0000.60
2021-11-14 04:48:00,,0830.1,5.00,0.00,27.6,26.8,00.0,36.8,29.4,12.7,0000.0,0008.65,0001.68,0000.67
2021-11-14 04:49:00,,0830.3,4.99,0.00,27.6,26.8,00.0,36.8,29.4,13.0,0000.0,0012.92,0002.76,0000.74
2021-11-14 04:50:00,,0830.4,4.99,0.00,27.6,26.8,00.0,36.7,29.4,13.1,0000.0,0017.85,0003.44,0000.81
2021-11-14 04:51:00,,0830.4,4.98,0.00,27.6,26.8,00.0,36.7,29.3,13.2,0000.0,0023.36,0003.87,0000.88
2021-11-14 04:52:00,,0830.5,5.01,0.00,27.6,26.8,00.0,36.7,29.3,13.3,0000.0,0028.06,0004.31,0000.94
2021-11-14 04:53:00,,0830.6,5.00,0.00,27.6,26.7,00.0,36.7,29.3,13.3,0000.0,0034.83,0004.81,0001.01
2021-11-14 04:54:00,,0830.6,4.99,0.00,27.5,26.7,00.0,36.7,29.3,13.4,0000.0,0040.37,0005.33,0001.06
2021-11-14 04:55:00,,0830.7,5.01,0.00,27.5,26.7,00.0,36.7,29.3,13.4,0000.0,0043.73,0005.83,0001.13
2021-11-14 04:56:00,,0830.8,4.99,0.00,27.5,26.6,00.0,36.7,29.2,13.5,0000.0,0048.98,0006.24,0001.20
2021-11-14 04:57:00,,0830.7,4.99,0.00,27.5,26.6,00.0,36.7,29.2,13.5,0000.0,0053.92,0006.56,0001.25
2021-11-14 04:58:00,,0830.7,5.01,0.00,27.4,26.6,00.0,36.6,29.2,13.5,0000.0,0056.18,0006.71,0001.28
2021-11-14 04:59:00,,0830.7,5.01,0.00,27.4,26.5,00.0,36.6,29.1,13.5,0000.0,0058.18,0006.62,0001.26
